Location: *
(34.3638°N, 107.4006°W)
Time: 20:58:49
(UTC+00:00)

Daily predictions for brighter satellites

Satellite Brightness Start Highest point End
(mag) Time Altitude Azimuth Time Altitude Azimuth Time Altitude Azimuth
Cosmos 1707 Rocket 3.7 12:11:02 60° NE 12:11:37 69° E 12:15:54 10° SSE
ARIANE 5 R/B 4.4 12:08:05 10° NE 12:12:30 30° E 12:16:50 10° SSE
Okean 3 3.6 12:15:23 63° SSE 12:15:23 63° SSE 12:18:52 10° S
ATLAS 3B R/B 4.2 12:20:33 22° NNW 12:20:33 22° NNW 12:25:01 10° N
Thor Agena Rocket 3.8 12:14:58 10° N 12:25:10 10° SSW 12:19:01 48° NNW
Okean 2 3.3 12:20:27 75° NE 12:20:40 79° E 12:24:36 10° S
CENTAUR R/B 4.2 12:13:21 10° NNW 12:21:30 46° NE 12:30:23 10° SE
Cosmos 2082 4.4 12:25:25 36° NNW 12:25:25 36° NNW 12:29:25 10° N
Cosmos 1470 Rocket 3.6 12:23:05 10° S 12:27:32 82° E 12:31:59 10° N
Cosmos 1862 Rocket 3.4 12:27:51 38° NNW 12:29:32 79° W 12:33:57 10° S
Cosmos 1072 Rocket 4.4 12:24:36 10° S 12:31:01 82° W 12:37:27 10° N
SKYMED 2 3.5 12:27:29 10° SSE 12:31:49 86° ENE 12:34:46 20° N
Gbstr 26 Del rocket 4.3 12:27:43 23° SW 12:33:04 75° NW 12:40:22 10° NE
Cosmos 1513 Rocket 4.4 12:29:22 10° SSW 12:35:18 58° W 12:41:17 10° N
Cosmos 2285 Rocket 4.1 12:29:48 10° S 12:36:10 78° ESE 12:42:36 10° NNE
Cosmos 304 Rocket 3.6 12:37:04 10° SSW 12:41:48 75° WNW 12:46:35 10° NNE
FengYun 1-2 T 4.5 12:36:49 10° N 12:41:58 43° WNW 12:47:05 10° SW
Cosmos 1933 Rocket 4.3 12:37:53 10° S 12:42:03 52° E 12:46:16 10° NNE
NOAA 12 4.0 12:36:59 10° N 12:42:08 60° WNW 12:47:16 10° SSW
Cosmos 1825 4.3 12:40:36 10° NNE 12:42:52 19° ENE 12:45:08 10° SE
Cosmos 1943 3.8 12:40:27 10° NNW 12:45:58 56° ENE 12:51:27 10° SE
Cosmos 1464 Rocket 3.9 12:40:26 10° SSW 12:46:39 66° W 12:52:57 10° N
IRS-1C 4.4 12:42:30 10° NNE 12:47:50 72° ESE 12:53:07 10° S
Cosmos 1300 2.2 12:46:29 10° SSW 12:49:47 60° W 12:53:05 10° N
Cosmos 2034 Rocket 4.0 12:46:33 10° S 12:52:48 90° WNW 12:59:01 10° N
Cosmos 2263 Rocket 3.9 12:55:45 15° NNW 12:55:45 15° NNW 12:57:28 10° NNW
Cosmos 1703 Rocket 4.1 12:53:55 10° N 12:58:14 61° E 13:02:30 10° SSE
Cosmos 2228 Rocket 3.8 12:58:03 26° WNW 12:59:26 31° W 13:03:22 10° SSW
Centaur D AC-25 4.5 12:58:46 12° WSW 13:00:41 14° SW 13:02:58 10° S
SL-16 R/B 3.0 12:59:26 23° WNW 13:01:39 30° WSW 13:06:31 10° SSW
ADEOS Rocket 3.1 12:57:59 10° N 13:04:04 66° WNW 13:10:50 10° SSW
Cosmos 1892 3.9 13:03:11 10° NNE 13:06:15 36° E 13:09:18 10° SSE
Cosmos 1814 Rocket 4.0 13:02:58 10° NNW 13:08:14 67° WSW 13:13:24 10° S
SMAP 3.8 13:09:17 10° NNE 13:13:52 58° E 13:18:26 10° S
Okean 1-7 3.4 13:11:48 10° NNW 13:15:41 37° W 13:19:32 10° SSW
Cosmos 1703 3.2 13:16:20 10° NNW 13:19:46 49° W 13:23:12 10° S
COSMO-SKYMED 1 3.6 13:16:29 10° SSW 13:20:01 24° W 13:23:25 11° NW
Cosmos 1844 Rocket 2.8 13:17:37 10° SW 13:23:04 51° WNW 13:28:31 10° N
USA 290 2.0 13:20:12 10° SSW 13:23:19 71° WNW 13:26:30 10° NNE
Cosmos 371 Rocket 4.3 13:20:08 10° WSW 13:24:03 25° WNW 13:28:02 10° N
CZ-2D R/B 3.3 13:22:16 10° NNE 13:26:17 87° WNW 13:30:11 10° SSW
Cosmos 1603 4.1 13:21:18 10° NNW 13:27:03 70° ENE 13:32:45 10° SSE
Meteor 2-12 Rocket 4.4 13:21:03 10° N 13:27:13 75° W 13:33:20 10° S
OAO 2 Rocket 3.9 13:23:13 10° WSW 13:27:58 55° SSE 13:32:46 10° E
Cosmos 1455 1.6 13:25:05 10° S 13:28:13 81° W 13:31:24 10° N
BREEZE-M DEB (TANK) 4.2 13:22:16 10° NW 13:32:10 85° SW 13:35:32 10° SE
Meteor 1-15 Rocket 4.4 13:26:31 10° SSW 13:32:21 63° W 13:38:14 10° N
SJ-6F 4.4 13:29:25 10° N 13:33:27 59° WNW 13:37:28 10° SSW
Cosmos 1437 Rocket 2.4 13:30:04 10° NNW 13:33:35 63° W 13:37:04 10° S
YAOGAN 11 4.4 13:29:38 10° S 13:33:46 44° W 13:37:52 10° NNW
Cosmos 405 Rocket 3.8 13:31:38 10° WSW 13:34:06 18° WNW 13:36:37 10° NNW
Meteor 1-12 Rocket 4.3 13:28:39 10° S 13:34:20 87° E 13:40:00 10° N
Cosmos 1733 Rocket 4.4 13:30:42 10° SSE 13:34:44 42° E 13:38:48 10° NNE
IGS 5A 4.0 13:31:16 10° NNE 13:35:15 61° E 13:39:12 10° S
Cosmos 1758 3.9 13:32:16 10° SW 13:35:38 31° W 13:39:01 10° NNW
Cosmos 1570 Rocket 4.4 13:30:28 10° NNW 13:35:46 70° ENE 13:40:59 10° SSE
Cosmos 2026 Rocket 4.0 13:31:06 10° N 13:37:18 79° W 13:43:24 10° S
AQUARIUS 4.5 13:33:33 10° NNE 13:37:59 72° ESE 13:42:23 10° S
Cosmos 158 Rocket 3.8 13:33:42 10° NNW 13:38:35 84° WSW 13:43:26 10° SSE
TRACE 4.1 13:38:14 10° S 13:41:21 83° W 13:44:29 10° NNW
Aureole 3 4.5 13:36:32 10° NNW 13:41:47 54° W 13:47:59 10° SSW
Cosmos 2208 Rocket 4.4 13:45:43 10° NNW 13:50:57 70° ENE 13:56:14 10° SSE
ARIANE 5 R/B 3.4 13:47:13 10° NNW 13:51:22 26° WNW 13:55:30 10° SW
